Home   Weather   Ica   Past weeks

Flag for Peru Past Weather in Ica, Ica, Peru — Yesterday and Last 2 Weeks

70 °F

Passing clouds.

Feels Like: 70 °F
Forecast: N/A
Wind: 7 mph from Northwest

Location: Pisco Airport

Current Time: Oct 20, 2016 at 4:30:18 PM

Latest Report: Oct 20, 2016 at 4:00 PM

Visibility: N/A

Pressure: 29.86 "Hg

Humidity: 73%

Dew Point: 61 °F

Location of IcaLocation

Past Weather in Ica — Graph


Ica Temperature Yesterday

Maximum temperature yesterday: 70 °F (at 2:00 PM)
Minimum temperature yesterday: 57 °F (at 5:00 AM)
Average temperature yesterday: 64 °F

High & Low Weather Summary for the Past Weeks

High75 °F (Oct 18, 1:00 PM)94% (Oct 7, 2:00 AM)30.01 "Hg (Oct 7, 2:00 AM)
Low55 °F (Oct 9, 6:00 AM)61% (Oct 15, 1:00 PM)29.83 "Hg (Oct 18, 4:00 PM)
Average65 °F81%29.93 "Hg
* Reported Oct 5 3:00 PM — Oct 20 3:00 PM, Ica, Weather by CustomWeather, © 2016

Note: Actual official high and low records may vary slightly from our data, if they occured in-between our weather recording intervals... More about our weather records


Ica Weather History for the Previous 24 Hours

Scroll right to see more
Time TempWeatherWind HumidityBarometerVisibility
3:00 PM
Thu, Oct 20
70 °FPassing clouds.9 mph69%29.86 "HgN/A
2:00 PM68 °FSunny.10 mph73%29.86 "Hg10 mi
1:00 PM68 °FClear.15 mph73%29.89 "Hg5 mi
12:00 PM66 °FClear.14 mph78%29.92 "Hg5 mi
11:00 AM68 °FClear.12 mph78%29.92 "Hg5 mi
10:00 AM66 °FPartly sunny.8 mph78%29.92 "Hg5 mi
9:00 AM66 °FOvercast.3 mph78%29.95 "Hg5 mi
8:00 AM64 °FMore clouds than sun.3 mph83%29.95 "Hg5 mi
7:00 AM63 °FMostly cloudy.8 mph88%29.92 "Hg4 mi
6:00 AM63 °FOvercast.7 mph88%29.92 "Hg4 mi
5:00 AM63 °FOvercast.7 mph88%29.89 "Hg5 mi
4:00 AM63 °FOvercast.6 mph88%29.89 "HgN/A
3:00 AM63 °FClear.6 mph88%29.89 "Hg10 mi
2:00 AM63 °FClear.3 mph83%29.92 "Hg10 mi
1:00 AM61 °FClear.No wind88%29.92 "Hg10 mi
12:00 AM63 °FClear.3 mph88%29.95 "Hg10 mi
11:00 PM
Wed, Oct 19
63 °FClear.7 mph88%29.95 "Hg10 mi
10:00 PM63 °FClear.10 mph88%29.95 "Hg10 mi
9:00 PM63 °FClear.10 mph88%29.95 "Hg10 mi
8:00 PM64 °FClear.13 mph83%29.92 "Hg10 mi
7:00 PM64 °FPassing clouds.14 mph83%29.92 "HgN/A
6:00 PM66 °FSunny.17 mph78%29.89 "Hg10 mi
5:00 PM70 °FSunny.15 mph69%29.86 "Hg10 mi
4:00 PM68 °FPassing clouds.7 mph73%29.89 "HgN/A
Weather by CustomWeather, © 2016

See weather overviewHow to use our weather pages